Wind_Speed
76 74 78 76 78 80 83 85 85 82 86 95 99 92 85 88 92 101 108 104 109 112 114 116 120 123 127 129 128 114 113 105 98 97 96 98 95 92 91 103 108 113 121 121
79 81 84 80 81 82 82 87 88 93 99 89 87 95 96 101 102 104 112 115 119 121 124 127 125 129 131 129 117 114 112 111 108 101 99 103 104 101 105 114 112 110 122 117
84 85 87 88 89 85 89 90 84 83 92 101 100 102 104 108 109 119 120 124 126 127 127 127 132 135 132 122 114 117 117 116 115 115 111 102 95 96 102 112 115 118 119 126
84 86 90 87 86 90 91 95 98 98 101 102 104 114 115 121 125 127 129 124 128 130 134 133 133 138 134 121 119 118 122 118 119 116 115 112 109 108 111 115 120 127 122 126
86 91 91 97 97 99 97 97 104 106 107 116 119 121 125 121 126 124 128 130 134 135 135 136 144 141 131 118 118 122 125 125 124 112 117 119 117 123 126 124 121 117 112 105
102 104 105 103 101 103 109 111 111 115 114 121 123 121 124 125 126 131 138 141 143 144 143 149 146 139 133 123 123 123 125 126 121 111 118 118 122 128 127 121 114 100 90 85
110 105 110 112 112 112 113 120 120 120 123 122 124 130 134 138 141 143 145 146 146 150 152 152 149 144 131 123 126 126 118 121 119 117 120 116 121 118 110 104 94 87 80 72
119 121 122 122 127 125 126 130 129 131 135 137 135 140 144 145 143 145 149 152 150 157 157 149 139 129 119 118 118 121 121 124 118 114 110 109 104 97 91 86 79 75 68 61
128 129 131 135 135 132 131 133 135 138 141 142 142 145 150 149 147 150 153 153 156 159 142 129 123 119 117 117 118 121 124 118 107 100 95 90 85 81 76 71 67 61 57 48
125 126 125 130 135 139 142 141 142 142 144 148 148 149 150 151 153 151 157 156 161 138 123 118 119 119 121 116 112 108 102 95 84 82 78 77 71 68 64 60 57 47 47 43
131 130 131 135 139 142 145 145 149 148 150 150 152 153 151 154 157 161 159 143 127 122 121 121 122 117 110 101 92 86 80 76 72 69 66 62 59 58 54 50 44 42 38 34
143 142 139 142 141 144 146 148 150 152 153 156 158 158 161 161 154 131 122 124 122 121 120 115 108 102 92 83 78 73 70 65 61 58 55 52 52 48 44 39 36 35 30 29
143 145 147 147 149 150 151 153 154 156 159 161 156 146 132 119 117 119 122 123 119 113 106 98 90 82 75 72 66 63 58 53 50 50 47 44 42 39 38 33 31 29 26 23
142 144 146 148 147 144 143 148 144 137 125 116 116 115 116 120 120 118 112 105 99 93 86 81 75 69 65 60 55 51 46 44 43 42 38 35 34 33 32 27 26 22 22 20
115 113 112 108 111 115 116 115 115 115 115 116 119 116 113 105 98 92 88 85 81 77 73 68 62 58 53 49 45 40 37 37 35 31 30 29 28 25 22 22 20 19 19 19
88 94 99 103 105 108 110 112 113 111 107 100 94 89 84 81 77 74 72 70 66 62 59 56 53 49 44 38 35 32 30 29 28 25 24 23 20 16 17 18 17 18 18 21
90 93 95 95 94 90 87 84 82 79 77 74 72 70 68 66 64 62 59 57 54 51 48 45 42 38 33 31 29 26 25 25 24 19 19 19 17 16 15 16 19 23 25 27
68 68 68 69 68 67 66 64 62 60 59 58 57 56 55 54 53 51 49 46 43 42 37 34 32 28 27 24 22 21 22 21 19 17 15 15 14 15 17 19 22 24 27 26
52 53 53 53 53 51 49 47 46 45 45 45 45 45 45 44 41 39 39 35 34 33 31 27 25 22 18 15 15 16 17 16 14 13 14 15 16 19 21 24 25 25 22 22
38 36 36 36 34 33 34 33 34 34 34 35 35 35 34 33 32 31 30 29 27 26 23 21 20 18 16 15 14 14 14 13 14 15 16 17 18 21 23 23 22 22 21 24
35 35 34 32 30 29 28 27 27 27 27 28 28 27 27 26 24 24 24 23 22 20 19 17 16 16 15 15 15 16 17 17 17 18 19 20 19 19 19 21 24 20 18 22
33 31 30 28 26 24 23 22 21 20 20 20 20 20 20 20 20 19 19 19 18 17 16 15 13 13 13 14 15 15 17 19 18 18 19 20 19 18 19 18 20 21 17 21
29 27 27 26 25 23 22 21 20 20 19 19 18 18 17 16 16 18 18 18 17 17 16 16 15 15 15 15 15 16 16 17 17 19 20 20 20 20 21 20 19 20 19 20
23 23 23 24 24 23 23 22 22 21 21 20 20 20 20 20 19 18 17 17 16 17 17 17 17 17 17 17 17 17 17 17 18 18 19 20 21 21 22 23 21 21 21 20
22 21 21 21 21 21 21 21 21 22 21 21 21 22 22 22 20 21 22 22 21 21 20 20 20 20 19 19 18 18 19 19 19 21 21 22 22 22 22 23 24 22 21 21
23 24 23 22 23 22 20 20 21 20 20 21 21 20 20 22 23 22 22 24 24 24 24 25 26 26 26 26 25 24 22 22 22 22 23 22 22 23 23 22 23 24 22 22
24 24 25 25 24 25 25 25 24 23 23 24 23 24 23 25 26 25 25 25 26 26 26 27 28 30 31 31 30 29 27 27 26 26 25 24 24 24 25 25 23 22 24 23
Wind_Direction
273 272 278 279 275 277 280 283 282 279 281 288 292 292 288 290 290 291 294 297 301 302 302 303 304 305 309 309 311 309 309 303 307 311 307 303 301 298 292 293 293 288 288 291
267 273 275 276 271 276 276 277 278 281 288 286 284 288 290 293 292 293 297 299 300 301 303 304 306 309 309 310 308 306 302 301 306 309 306 301 301 296 289 288 287 290 289 294
266 270 272 271 274 273 276 279 284 281 283 286 288 289 292 296 294 295 297 299 299 302 303 304 309 308 310 308 303 302 303 303 302 303 304 296 293 292 291 289 290 291 292 293
263 266 269 270 270 273 274 279 279 280 283 285 287 290 290 292 294 294 296 297 300 301 303 306 306 307 308 304 300 300 301 302 301 303 303 297 297 297 292 294 295 294 296 294
267 265 267 267 271 273 272 275 278 280 280 284 288 287 289 291 293 295 296 298 299 301 303 303 304 307 307 300 297 298 299 301 301 303 299 298 301 298 299 298 296 293 292 293
268 268 263 266 269 271 274 274 277 280 281 283 288 290 292 292 292 294 297 298 299 301 300 302 304 304 304 299 297 296 299 299 299 300 296 299 299 298 298 298 295 296 296 295
267 267 268 270 269 269 273 276 280 281 282 283 285 287 289 291 292 293 295 297 298 299 300 301 302 303 301 300 299 297 298 297 297 298 298 301 298 295 295 294 295 297 296 293
265 266 268 272 274 275 276 278 279 280 282 284 287 286 287 290 291 293 294 296 298 297 300 299 299 298 298 298 298 298 298 298 298 299 300 296 293 293 293 293 294 293 294 293
266 265 266 270 271 274 276 278 280 281 283 285 287 287 289 291 292 293 296 297 298 298 297 296 297 296 296 297 298 299 298 297 299 298 294 292 290 290 290 291 291 292 293 295
269 270 269 270 272 275 279 281 282 283 284 285 287 288 290 292 293 294 295 295 297 295 294 295 295 297 298 298 297 295 293 293 294 292 291 288 290 290 291 288 290 295 295 295
270 272 273 274 276 278 280 281 283 284 285 287 288 289 290 292 292 294 294 294 292 292 294 296 297 298 297 297 297 294 294 294 292 290 288 289 288 287 287 289 293 292 291 291
272 275 277 277 276 277 279 281 283 284 285 287 288 289 290 291 292 291 290 289 291 294 295 297 297 297 296 296 295 295 293 290 289 288 288 288 287 288 289 291 289 285 285 278
269 271 273 275 277 278 280 282 283 283 284 286 287 287 288 288 288 288 289 292 294 293 294 296 295 295 296 296 295 292 290 291 289 287 287 287 287 289 288 287 282 282 277 278
270 273 275 279 279 279 279 281 282 283 282 282 284 285 285 286 289 291 291 291 292 292 293 294 294 296 296 295 293 292 292 289 286 285 291 291 289 287 285 282 277 276 276 271
272 274 274 275 275 275 277 278 279 279 282 283 285 285 286 287 287 288 289 289 290 293 295 296 296 295 295 293 292 291 287 285 288 294 289 288 286 282 278 273 271 272 270 267
271 270 272 273 276 278 279 280 281 282 283 283 284 286 286 286 287 289 292 294 295 295 296 295 295 295 294 292 291 290 291 290 290 290 285 280 277 273 270 266 264 264 258 262
274 275 277 278 279 280 280 281 282 282 284 285 286 285 287 289 290 291 292 293 293 293 293 294 294 294 296 296 295 293 292 288 284 282 272 273 272 264 260 260 262 263 259 259
283 283 284 284 284 284 283 283 283 283 282 282 284 284 286 289 290 291 292 294 294 294 296 298 299 300 298 299 296 296 295 295 288 282 273 267 263 260 258 258 262 263 266 272
286 285 284 286 287 286 285 285 284 285 285 286 290 290 290 292 294 294 294 296 298 300 299 300 302 299 297 299 301 297 298 296 293 283 275 271 268 262 262 262 269 275 280 277
291 294 297 298 295 292 290 289 290 290 290 290 291 292 295 296 297 297 296 297 299 300 301 299 298 298 301 296 296 296 292 290 287 281 276 271 271 268 271 278 279 280 276 275
304 307 308 312 316 318 317 314 312 309 305 304 302 302 302 303 301 301 302 304 302 303 305 305 305 303 304 299 296 294 290 290 291 289 287 286 287 287 281 278 281 283 272 268
306 309 311 313 316 318 322 323 322 319 316 315 312 311 312 312 312 313 311 314 314 314 316 318 320 316 313 311 308 303 299 298 299 299 300 298 297 292 288 281 274 279 269 261
312 315 316 316 316 316 319 323 326 329 332 333 333 333 335 336 334 333 332 331 329 326 322 323 324 320 315 313 312 310 305 303 302 300 297 294 292 289 287 286 282 280 279 267
315 318 322 323 323 321 323 325 325 326 327 328 331 332 334 335 335 335 334 333 333 335 333 332 330 327 323 317 312 308 304 301 299 294 293 293 292 288 286 285 284 279 275 269
318 320 324 324 326 327 325 324 324 324 324 325 325 325 325 322 321 323 322 322 323 322 323 323 322 321 319 317 317 317 315 311 308 303 301 299 296 294 290 286 285 284 275 270
323 322 323 323 323 323 322 321 322 320 320 320 318 317 316 315 313 313 311 310 309 308 308 307 307 306 306 307 309 308 307 304 304 303 304 303 300 297 294 292 290 287 283 274
330 329 327 327 326 324 324 323 322 320 318 315 314 312 312 310 306 304 303 302 302 299 297 296 296 295 294 295 295 295 294 294 294 294 294 296 298 299 298 297 293 288 286 282
Height
10579 10579 10579 10578 10575 10574 10570 10566 10560 10558 10554 10547 10542 10540 10536 10536 10532 10526 10521 10514 10509 10506 10501 10493 10484 10473 10462 10450 10439 10422 10412 10407 10421 10424 10405 10388 10383 10381 10368 10351 10342 10326 10315 10311
10564 10561 10562 10562 10559 10556 10551 10546 10541 10538 10535 10529 10526 10522 10518 10515 10511 10503 10493 10485 10483 10478 10472 10460 10455 10442 10431 10420 10407 10394 10388 10381 10379 10398 10391 10365 10363 10358 10349 10330 10317 10310 10279 10296
10547 10545 10545 10544 10542 10538 10535 10528 10520 10516 10515 10510 10505 10498 10495 10488 10484 10479 10472 10464 10456 10447 10440 10431 10425 10416 10404 10394 10383 10369 10355 10358 10352 10352 10357 10348 10347 10339 10324 10298 10288 10282 10278 10257
10531 10529 10529 10525 10524 10520 10517 10514 10507 10500 10494 10493 10485 10479 10474 10468 10460 10456 10446 10437 10430 10422 10414 10404 10397 10389 10381 10370 10358 10344 10333 10333 10324 10327 10312 10304 10305 10308 10297 10284 10267 10239 10246 10230
10511 10510 10504 10505 10504 10499 10495 10493 10489 10482 10478 10475 10466 10457 10451 10443 10435 10429 10420 10409 10406 10400 10390 10382 10373 10364 10355 10349 10342 10320 10307 10304 10291 10304 10282 10266 10270 10252 10242 10240 10235 10224 10208 10201
10493 10487 10487 10483 10482 10479 10474 10471 10469 10462 10457 10449 10440 10431 10423 10417 10408 10403 10394 10385 10379 10372 10364 10356 10345 10337 10330 10323 10312 10301 10288 10272 10266 10270 10252 10250 10240 10216 10206 10194 10180 10179 10178 10168
10475 10469 10462 10459 10461 10457 10454 10450 10443 10440 10433 10425 10418 10413 10404 10396 10387 10377 10369 10359 10354 10345 10333 10324 10317 10308 10300 10290 10281 10263 10262 10244 10239 10238 10226 10229 10205 10185 10177 10164 10158 10153 10150 10146
10453 10449 10444 10438 10432 10433 10430 10425 10422 10414 10407 10400 10393 10384 10378 10371 10362 10353 10340 10331 10324 10314 10302 10292 10287 10278 10272 10263 10253 10232 10220 10209 10203 10202 10197 10185 10168 10159 10151 10144 10141 10134 10131 10128
10426 10424 10423 10418 10412 10407 10402 10398 10394 10387 10380 10373 10363 10354 10347 10339 10330 10324 10310 10298 10288 10278 10265 10255 10247 10247 10243 10236 10228 10208 10187 10174 10174 10172 10159 10149 10142 10137 10133 10127 10123 10121 10113 10113
10400 10398 10395 10391 10386 10381 10376 10371 10365 10356 10348 10343 10333 10324 10319 10310 10299 10291 10280 10265 10253 10240 10232 10227 10222 10220 10207 10201 10194 10185 10166 10153 10152 10140 10133 10126 10122 10116 10113 10111 10108 10108 10101 10099
10370 10368 10364 10362 10358 10355 10349 10343 10334 10326 10317 10312 10302 10293 10286 10276 10265 10257 10249 10231 10216 10208 10202 10197 10191 10186 10174 10167 10158 10146 10141 10133 10128 10120 10113 10110 10106 10101 10100 10098 10096 10093 10092 10091
10343 10343 10340 10332 10328 10324 10318 10310 10303 10296 10288 10280 10272 10261 10252 10243 10234 10225 10213 10200 10191 10188 10177 10170 10164 10155 10145 10137 10132 10124 10117 10112 10105 10100 10097 10094 10089 10088 10085 10084 10084 10082 10082 10080
10322 10318 10313 10307 10299 10294 10288 10280 10273 10264 10255 10246 10236 10227 10220 10211 10203 10192 10183 10174 10169 10158 10150 10145 10137 10129 10124 10116 10111 10104 10097 10093 10088 10082 10081 10080 10077 10075 10073 10073 10072 10071 10071 10070
10303 10298 10289 10281 10273 10264 10253 10245 10237 10231 10222 10214 10198 10198 10197 10185 10176 10167 10159 10150 10142 10133 10127 10121 10114 10109 10104 10097 10092 10086 10082 10077 10072 10069 10069 10068 10066 10065 10063 10064 10064 10064 10063 10062
10277 10269 10258 10246 10235 10226 10219 10213 10206 10200 10196 10188 10175 10176 10166 10160 10154 10146 10137 10129 10121 10114 10107 10101 10095 10090 10085 10080 10076 10073 10067 10062 10060 10060 10059 10058 10057 10057 10056 10056 10056 10056 10055 10054
10242 10233 10224 10216 10210 10203 10197 10189 10183 10175 10167 10162 10156 10150 10142 10134 10128 10123 10117 10111 10105 10096 10090 10084 10078 10074 10071 10068 10063 10059 10056 10052 10051 10052 10051 10051 10051 10050 10049 10049 10049 10049 10048 10047
10218 10211 10203 10193 10185 10178 10171 10164 10156 10150 10145 10139 10132 10125 10120 10116 10111 10106 10100 10094 10088 10082 10076 10071 10066 10063 10059 10055 10052 10049 10046 10045 10045 10045 10045 10044 10044 10043 10042 10042 10041 10040 10040 10039
10196 10188 10179 10169 10162 10155 10148 10142 10136 10131 10125 10119 10115 10110 10105 10100 10096 10091 10085 10081 10075 10070 10065 10061 10057 10053 10050 10047 10044 10043 10041 10040 10040 10040 10040 10039 10039 10037 10036 10035 10034 10033 10032 10031
10178 10171 10163 10154 10146 10138 10131 10126 10120 10116 10111 10104 10100 10096 10091 10087 10083 10078 10073 10069 10064 10060 10056 10053 10050 10046 10043 10041 10039 10037 10036 10036 10036 10035 10034 10033 10033 10031 10030 10028 10028 10027 10027 10026
10162 10156 10148 10141 10134 10126 10119 10113 10107 10102 10098 10093 10089 10084 10079 10076 10073 10068 10064 10061 10057 10054 10050 10047 10043 10040 10037 10035 10034 10032 10031 10030 10029 10029 10029 10028 10027 10026 10024 10023 10022 10021 10020 10018
10150 10143 10136 10129 10121 10113 10107 10102 10097 10092 10088 10084 10079 10075 10071 10067 10064 10060 10056 10052 10049 10047 10044 10041 10038 10035 10033 10031 10029 10027 10026 10024 10023 10023 10022 10021 10020 10020 10019 10017 10015 10015 10015 10013
10139 10133 10126 10120 10114 10109 10103 10098 10093 10088 10083 10079 10074 10070 10066 10062 10058 10054 10050 10047 10044 10042 10039 10036 10034 10032 10029 10027 10025 10023 10022 10020 10018 10017 10016 10014 10013 10012 10010 10010 10009 10008 10008 10007
10129 10124 10118 10113 10107 10103 10098 10093 10088 10083 10078 10074 10070 10066 10063 10059 10054 10050 10046 10043 10040 10037 10034 10031 10029 10026 10025 10022 10021 10019 10017 10015 10013 10011 10009 10008 10007 10005 10004 10003 10002 10001 10001 10001
10122 10117 10111 10105 10101 10096 10092 10087 10083 10079 10075 10071 10067 10063 10059 10055 10052 10049 10046 10042 10038 10034 10031 10028 10025 10022 10020 10019 10017 10014 10012 10010 10008 10006 10004 10002 10000 9999 9998 9996 9995 9994 9993 9993
10116 10111 10105 10100 10096 10091 10087 10083 10079 10075 10071 10067 10063 10059 10055 10052 10049 10045 10041 10038 10035 10031 10028 10024 10021 10019 10016 10013 10010 10008 10005 10003 10001 9999 9997 9995 9993 9992 9990 9989 9987 9986 9985 9984
10110 10105 10100 10096 10091 10086 10083 10079 10075 10071 10066 10062 10059 10055 10051 10047 10044 10041 10037 10033 10030 10027 10023 10020 10016 10013 10010 10007 10004 10002 10000 9997 9995 9992 9990 9988 9985 9983 9981 9981 9979 9978 9977 9976
10105 10100 10095 10090 10086 10082 10077 10073 10069 10065 10061 10057 10053 10049 10045 10041 10037 10033 10030 10027 10023 10019 10016 10012 10009 10005 10002 10000 9998 9996 9993 9991 9988 9986 9983 9980 9978 9976 9973 9971 9970 9969 9968 9967